Flag for Canada Weather past 2 weeks in Guelph, Ontario, Canada

Now
59 °F

Sunny.


Feels Like: 57 °F
Forecast: N/A
Wind: 10 mph from West

Location: Waterloo Well

Current Time: Oct 24, 2014 at 5:27:15 PM

Latest Report: Oct 24, 2014 at 5:00 PM


Visibility: 9 mi

Pressure: 29.96 "Hg

Humidity: 48%

Dew point: 39 °F

Location of GuelphLocation

Historic Weather in Guelph — Graph

°F

Guelph temperature yesterday

Maximum temperature yesterday: 61 °F (at 2:00 PM)
Minimum temperature yesterday: 32 °F (at 6:00 AM)
Average temperature yesterday: 44 °F

Past Weeks' High & Low Weather Summary

 TemperatureHumidityPressure
High72 °F (Oct 14, 11:00 AM)100% (Oct 10, 11:00 PM)30.30 "Hg (Oct 10, 11:00 PM)
Low27 °F (Oct 12, 5:01 AM)44% (Oct 12, 4:00 PM)29.49 "Hg (Oct 17, 3:00 PM)
Average48 °F85%29.96 "Hg
* Reported Oct 9 4:00 PM — Oct 24 4:00 PM, Guelph, Weather by CustomWeather, © 2014

Note: Actual official high and low records may vary slightly from our data, if they occured in-between our weather recording intervals... More about our weather records

Advertising

Guelph weather history for previous 24 hours

 ConditionsComfort  
Time TempWeatherWind HumidityBarometerVisibility
4:00 PM
Oct 24
59 °FSunny.8 mph55%29.96 "Hg9 mi
3:00 PM57 °FSunny.9 mph63%29.98 "Hg9 mi
2:00 PM55 °FSunny.12 mph63%30.00 "Hg9 mi
1:00 PM52 °FSunny.7 mph72%30.03 "Hg9 mi
12:00 PM45 °FPartly sunny.5 mph87%30.07 "Hg7 mi
11:47 AM45 °FFog.6 mph93%30.07 "Hg6 mi
11:00 AM41 °FFog.3 mph93%30.09 "Hg2 mi
10:01 AM39 °FFog.9 mph93%30.09 "Hg1 mi
9:00 AM37 °FFog.3 mph93%30.08 "Hg2 mi
8:00 AM34 °FFog.7 mph100%30.07 "Hg2 mi
7:59 AM34 °FFog.6 mph100%30.07 "Hg2 mi
7:00 AM27 °FIce fog.6 mph100%30.07 "Hg0 mi
6:04 AM30 °FIce fog.3 mph100%30.07 "Hg1 mi
5:02 AM32 °FIce fog.7 mph100%30.07 "Hg2 mi
4:00 AM30 °FIce fog.5 mph100%30.06 "Hg1 mi
3:56 AM30 °FIce fog.5 mph100%30.07 "Hg1 mi
3:00 AM34 °FFog.5 mph100%30.07 "Hg2 mi
2:59 AM34 °FFog.5 mph100%30.07 "Hg3 mi
2:00 AM34 °FFog.5 mph100%30.07 "Hg5 mi
1:00 AM36 °FClear.6 mph93%30.08 "Hg9 mi
12:00 AM36 °FClear.7 mph100%30.08 "Hg9 mi
11:00 PM
Oct 23
37 °FClear.5 mph93%30.09 "Hg9 mi
10:00 PM41 °FClear.3 mph93%30.10 "Hg9 mi
9:00 PM45 °FClear.7 mph87%30.10 "Hg9 mi
8:00 PM48 °FClear.9 mph76%30.10 "Hg9 mi
7:00 PM48 °FSunny.7 mph76%30.10 "Hg9 mi
6:00 PM54 °FSunny.8 mph67%30.09 "Hg9 mi
5:00 PM57 °FSunny.14 mph55%30.08 "Hg9 mi
Weather by CustomWeather, © 2014

See weather overviewHow to use our weather pages